GFSMW_700_spd_165.txt.gz
Wind_Speed
38 36 38 40 41 40 39 37 34 33 31 30 28 27 26 24 22 19 18 20 22 25 27 28 28 29 30 31 31 31 32 35 39 41 40 39 40 40 35 35 38 43 45
37 42 42 42 41 40 39 37 35 34 32 30 29 27 26 24 21 18 17 19 23 26 26 27 28 28 30 30 30 30 31 35 39 42 42 42 39 39 31 31 38 43 39
39 45 46 41 41 40 41 39 36 35 33 31 28 28 27 23 20 16 16 20 24 25 25 26 26 27 28 28 28 29 31 33 35 36 39 43 42 42 26 28 34 36 35
43 47 48 45 44 42 43 41 38 36 34 31 30 28 26 22 18 15 18 21 23 23 24 25 25 26 27 26 27 28 29 30 31 32 34 40 41 40 35 25 30 28 31
46 49 47 45 44 44 44 42 40 37 35 33 31 27 24 20 15 15 18 21 22 22 23 23 24 25 25 25 25 26 27 28 29 30 33 36 35 35 38 35 27 23 26
49 48 46 45 45 46 44 44 40 38 36 33 30 26 21 15 14 14 18 21 21 21 21 23 24 24 23 23 24 25 26 27 27 28 30 34 38 38 35 33 28 25 19
49 49 51 47 46 47 45 45 42 39 36 33 28 24 18 16 14 14 19 21 21 21 21 22 23 23 22 22 23 24 25 25 25 26 29 31 35 37 33 34 30 24 19
40 43 50 48 43 45 47 45 43 37 36 32 29 23 18 16 12 17 21 21 21 21 21 22 23 22 22 22 22 23 23 23 23 24 26 30 32 36 34 32 28 20 17
33 40 45 45 43 46 47 45 42 39 36 33 26 20 16 11 15 18 21 20 20 20 21 22 22 22 21 21 21 21 21 21 21 23 26 27 29 35 32 28 23 18 14
30 34 39 44 44 42 44 43 42 37 36 32 22 18 12 9 14 19 21 21 19 19 20 20 22 21 20 20 20 20 20 19 19 22 24 25 27 31 29 24 16 17 15
29 28 30 37 42 41 41 43 42 39 38 25 23 16 13 11 16 17 20 20 18 18 19 20 21 20 19 19 19 19 18 18 19 20 22 23 24 28 27 22 15 14 14
29 27 27 29 34 38 41 43 42 38 40 27 23 15 9 16 17 19 19 18 18 19 20 21 20 19 18 18 18 17 17 17 18 19 20 20 21 23 26 21 17 14 14
17 19 20 23 25 26 32 39 41 42 39 31 26 11 16 20 21 18 19 19 20 20 20 21 20 19 18 17 16 16 16 16 16 17 18 18 19 20 19 22 21 16 14
21 21 24 22 26 28 35 41 43 44 39 32 31 21 25 23 21 19 22 21 21 20 20 21 20 18 17 16 15 16 16 16 16 16 16 15 16 17 18 17 17 20 19
16 17 21 30 32 33 35 40 40 38 33 35 25 28 27 23 22 22 24 22 21 21 21 21 19 18 16 16 15 15 15 16 16 16 16 15 15 15 16 16 16 18 19
24 24 21 24 24 28 32 39 39 39 35 31 29 27 25 25 25 25 24 22 22 21 21 20 19 18 17 16 15 15 16 16 15 15 15 15 14 14 14 15 16 17 18
26 26 19 11 15 21 26 27 35 28 26 26 25 26 27 28 28 26 24 24 22 21 20 20 18 18 17 16 16 16 16 16 15 15 15 15 14 13 13 14 15 16 17
15 20 22 17 17 22 24 25 25 24 25 24 25 26 27 28 27 25 25 24 22 20 20 19 18 18 17 17 16 16 16 15 14 14 15 15 14 13 13 14 15 16 17
23 21 20 19 25 22 23 25 25 28 26 26 26 26 27 27 26 25 24 22 21 20 19 18 17 17 17 17 16 16 16 14 14 15 15 15 14 13 13 13 14 15 15
25 29 31 29 33 25 26 25 24 28 28 25 26 27 27 27 25 24 22 22 20 19 18 18 17 16 17 16 16 16 16 14 15 16 16 15 14 14 14 14 14 15 15
26 30 31 37 33 31 31 29 25 26 30 26 27 26 26 24 24 23 22 21 20 19 19 18 18 17 17 17 18 18 17 18 17 17 16 16 15 15 15 16 16 15 15
23 23 28 38 40 37 33 28 27 25 25 25 24 24 23 23 23 22 21 20 20 19 19 18 19 19 18 17 17 17 18 18 17 17 17 16 16 17 17 17 17 16 17
27 23 22 27 32 32 26 25 23 23 21 22 21 21 21 22 22 21 21 20 19 19 19 19 19 19 18 17 17 18 18 18 18 18 17 17 18 18 18 18 18 19 19
22 29 26 20 20 22 23 20 19 19 20 20 20 21 22 22 21 21 20 20 19 19 20 20 20 20 19 18 18 18 19 19 19 19 19 19 19 20 19 19 19 20 20
17 20 20 20 19 18 16 17 18 19 19 20 20 21 21 21 21 20 20 20 20 21 21 20 21 21 21 21 21 20 20 21 21 21 21 21 21 21 22 21 21 21 21
20 21 20 18 16 15 16 16 19 20 19 20 20 20 19 20 21 21 21 21 20 21 22 22 22 21 22 23 23 23 23 23 23 22 22 21 21 22 21 22 22 22 24

GFSMW_700_spd_168.txt.gz
Wind_Speed
35 37 31 37 39 40 38 38 39 39 38 36 34 32 30 28 26 25 24 22 23 25 26 27 27 28 28 28 28 28 30 33 33 34 31 30 34 34 36 40 42 43 41
39 38 41 42 41 41 38 40 40 41 39 37 36 34 31 29 27 26 25 23 23 25 26 27 27 27 27 26 27 27 27 30 33 34 35 37 32 32 34 37 35 36 38
42 45 50 46 45 48 43 41 40 41 40 39 38 35 31 30 28 27 24 23 23 24 24 25 26 25 25 26 26 26 25 27 29 32 34 36 36 36 34 36 35 36 39
39 47 53 53 49 50 44 41 41 42 42 41 37 35 33 31 29 26 23 22 21 21 23 25 24 24 24 24 24 24 24 25 27 29 31 31 33 36 39 40 37 34 36
47 49 56 55 54 49 46 44 43 44 44 40 37 37 36 31 27 24 23 19 18 21 23 23 23 23 22 23 23 23 23 24 26 28 29 30 30 33 37 41 40 31 34
45 51 55 55 56 52 47 46 46 45 43 41 38 38 35 29 26 24 20 16 15 20 25 23 22 22 21 22 22 21 22 23 25 27 28 29 31 34 37 40 40 38 30
42 49 56 58 59 57 49 44 45 46 43 42 38 38 33 28 25 23 16 12 15 22 23 22 21 20 21 20 21 20 21 23 25 26 27 28 30 32 36 39 39 31 24
39 45 47 55 59 58 50 44 40 42 44 43 39 36 32 29 26 18 13 10 16 22 22 21 20 19 19 19 19 19 21 23 24 25 26 26 28 31 34 37 36 25 20
31 36 44 51 55 55 50 43 39 46 45 43 38 35 33 28 21 15 8 12 16 22 21 20 18 18 19 19 18 18 21 22 23 24 24 25 27 29 31 34 31 25 21
29 29 41 44 52 52 47 44 40 43 45 42 37 35 31 25 18 12 8 15 20 19 19 18 17 17 17 17 17 18 20 21 22 23 23 24 25 27 27 32 28 24 22
25 28 31 33 42 50 48 44 42 40 43 39 37 34 29 22 20 10 19 14 17 17 16 16 16 17 17 17 17 18 19 20 20 21 22 22 23 24 25 26 29 26 21
28 29 29 33 37 38 42 44 42 38 41 40 38 34 28 25 15 16 9 16 15 14 14 15 15 16 17 17 17 18 18 18 19 19 20 20 22 22 23 23 24 28 23
18 19 21 28 31 35 37 39 41 38 41 42 39 32 28 20 23 12 16 16 14 14 14 15 16 16 17 17 17 17 17 17 17 17 17 18 19 20 21 21 22 21 23
15 16 13 14 21 28 31 30 32 35 41 41 36 35 33 24 15 17 19 18 14 14 15 16 17 17 18 18 18 17 17 17 16 16 16 16 17 18 19 19 19 19 19
15 15 15 16 23 23 24 23 23 33 44 46 42 38 22 20 19 22 22 18 15 16 18 18 18 18 19 18 18 18 18 16 16 16 16 16 16 16 17 17 17 18 18
22 20 24 18 18 20 24 29 30 35 44 46 48 36 22 24 20 26 23 18 17 18 19 18 18 18 18 18 19 18 17 16 16 16 16 15 15 15 15 15 16 17 18
26 26 26 28 25 27 27 24 29 38 44 42 32 26 25 21 27 26 21 20 19 20 19 19 19 18 18 19 19 18 17 16 16 15 15 15 15 15 15 15 15 17 18
24 20 22 27 23 18 15 21 31 40 37 31 28 28 30 30 26 23 23 21 20 20 20 20 19 18 18 18 18 17 16 15 15 14 13 14 16 16 15 14 15 16 17
23 20 18 17 13 10 11 14 25 28 26 27 27 34 32 24 24 23 22 20 21 21 20 20 18 18 18 17 17 16 15 15 14 14 14 15 16 15 15 15 15 15 15
20 17 20 23 22 18 18 18 15 21 24 27 31 32 27 23 26 24 21 22 22 21 20 19 18 18 17 15 16 15 15 15 15 16 17 16 16 15 16 16 16 16 17
19 24 23 27 29 22 26 21 26 25 26 31 36 36 27 25 26 23 21 22 22 21 19 19 18 17 17 16 16 17 17 17 16 17 18 17 17 16 16 16 17 18 18
22 24 26 26 27 28 33 36 29 32 29 30 34 26 22 24 24 21 22 23 21 19 19 19 18 17 16 17 17 17 18 16 16 17 17 17 17 16 16 18 18 19 19
19 22 23 22 25 29 38 33 29 37 34 24 23 23 24 21 21 22 22 21 20 19 19 18 19 17 16 18 18 17 18 17 17 18 18 18 18 18 18 19 19 19 20
18 22 24 22 20 24 33 29 28 19 23 15 20 20 20 21 21 21 21 20 19 19 19 19 20 17 17 18 19 19 19 19 19 19 19 19 20 20 20 21 21 22 23
17 18 21 22 19 21 21 24 16 13 16 20 19 18 20 20 20 20 20 19 19 18 20 20 20 19 18 19 20 21 21 21 22 21 21 21 22 22 22 22 22 23 23
16 17 18 19 20 19 17 15 13 15 16 15 17 18 18 18 19 19 20 19 18 18 21 22 22 20 20 21 22 21 22 23 24 24 23 23 23 24 23 23 22 24 25

GFSMW_700_spd_171.txt.gz
Wind_Speed
46 45 39 40 41 40 34 32 33 34 35 37 35 35 33 29 28 27 25 24 23 23 24 24 25 26 27 28 29 28 28 27 25 23 21 24 25 27 28 30 33 36 40
40 43 43 45 49 42 38 35 35 36 37 36 35 33 33 31 29 28 26 25 24 24 25 25 25 26 28 28 27 27 27 27 26 26 25 22 23 24 26 28 33 37 40
40 44 47 48 49 49 39 35 37 37 37 37 37 37 36 34 31 30 27 26 25 25 24 26 25 26 28 26 26 26 24 25 26 26 26 29 28 26 24 26 32 37 38
42 47 51 53 50 49 46 39 36 40 39 40 39 37 33 28 29 30 28 27 25 24 24 24 24 26 27 25 26 24 23 24 24 25 25 26 28 30 30 29 32 39 41
45 49 55 56 52 50 48 45 39 33 41 43 41 36 33 32 31 31 30 27 25 24 20 19 25 26 25 24 24 22 22 22 22 22 23 24 26 28 31 33 34 36 40
38 50 54 54 52 52 48 47 42 34 38 44 41 38 37 32 31 31 29 26 25 22 16 21 23 23 24 24 22 22 20 20 20 21 23 24 25 27 29 31 34 36 37
29 41 56 57 57 52 48 50 46 39 36 40 42 41 36 31 31 31 28 26 22 17 16 21 21 23 23 22 21 21 19 18 18 19 21 23 25 26 28 30 32 34 33
32 37 45 56 55 46 47 48 46 39 34 35 42 42 35 31 31 31 28 23 19 15 19 19 22 23 21 20 19 19 18 16 17 18 20 22 23 25 26 29 31 30 28
33 33 43 49 52 45 45 47 45 40 35 37 40 38 33 33 32 30 26 21 18 15 19 18 23 21 19 18 18 17 15 15 16 18 20 21 22 24 25 27 29 31 33
19 26 34 48 48 40 42 46 44 39 34 32 37 41 36 34 31 29 24 22 12 15 21 19 20 18 17 16 16 15 14 14 16 17 19 20 21 22 23 24 26 28 30
11 16 28 33 29 41 43 47 44 40 37 32 34 39 37 35 32 27 24 15 13 23 16 18 16 16 16 15 14 13 13 14 15 17 17 18 19 20 21 23 23 25 26
6 11 18 27 26 32 38 42 41 40 36 31 32 37 38 35 31 26 21 13 21 13 15 14 15 15 14 14 12 12 13 13 15 16 16 17 18 19 19 21 21 22 23
16 17 23 32 31 30 33 36 37 35 35 30 30 39 41 37 30 27 24 18 20 11 13 12 14 13 13 12 12 12 13 14 15 15 16 17 17 17 18 18 20 20 20
21 13 13 19 25 25 27 28 31 29 27 27 30 41 41 36 30 30 22 25 15 15 13 11 12 13 12 12 12 12 13 13 14 15 16 16 16 15 15 16 17 17 19
14 15 19 14 15 16 15 16 16 21 22 24 32 43 46 43 35 15 8 21 20 14 14 11 12 13 13 12 12 12 13 14 14 16 16 16 15 14 14 14 15 15 16
18 17 14 16 17 18 16 16 17 19 23 29 37 45 47 40 26 27 23 24 21 14 14 11 13 14 12 12 13 13 13 14 15 16 16 15 14 13 14 14 14 15 16
19 21 21 19 18 20 21 19 22 26 32 25 40 51 49 36 20 25 17 19 18 15 13 13 14 14 13 13 13 13 14 16 16 16 16 14 12 13 14 14 14 14 15
19 20 23 22 17 17 22 24 26 30 34 34 40 50 52 40 34 24 15 16 20 17 15 15 15 14 14 13 13 14 15 16 16 15 14 12 12 14 14 14 14 14 15
13 19 19 22 21 23 20 13 15 26 31 33 38 49 42 33 30 21 15 19 19 17 17 16 15 14 14 14 14 14 16 16 16 14 14 13 14 14 14 14 14 14 15
15 13 19 18 14 12 11 9 16 20 27 30 31 25 32 32 30 22 17 20 20 18 18 16 15 15 15 15 15 14 16 16 16 16 15 16 16 15 15 15 16 15 16
16 12 14 15 17 17 17 12 17 14 20 24 30 32 31 33 30 24 21 19 19 19 19 16 15 17 16 16 17 17 16 16 17 16 16 17 16 15 14 15 15 17 18
17 19 19 18 21 22 24 25 26 25 24 28 32 35 39 38 33 20 17 18 19 19 19 17 16 16 16 17 18 19 18 16 16 18 16 17 17 16 16 16 16 18 19
18 17 19 20 19 21 21 29 21 31 28 33 40 43 43 40 37 29 21 19 19 19 19 18 16 15 17 19 20 20 19 18 17 18 16 18 18 18 18 18 19 19 20
21 23 19 19 21 20 21 22 28 31 28 33 27 24 28 31 23 23 22 20 19 19 18 18 16 15 18 20 20 20 21 20 19 20 19 19 19 19 20 21 20 20 21
14 17 19 17 18 18 19 21 32 30 22 22 24 17 15 18 21 20 20 19 19 20 18 18 17 16 17 21 21 21 21 21 22 22 22 21 21 21 22 22 22 22 22
16 16 19 17 16 18 20 20 17 17 11 10 14 16 15 17 18 20 20 18 18 17 17 19 19 19 19 19 22 21 20 21 22 23 23 23 23 22 22 22 24 24 24

GFSMW_700_spd_177.txt.gz
Wind_Speed
33 34 36 35 36 39 40 39 40 39 33 28 28 36 40 39 41 39 36 34 30 27 26 24 25 24 23 20 17 16 17 22 24 25 25 24 24 24 25 25 26 26 27
33 34 34 40 38 36 36 38 39 41 38 31 24 30 38 40 41 40 37 34 31 28 28 26 26 25 23 21 18 17 18 22 24 25 24 23 22 23 24 24 25 26 27
41 38 34 35 39 42 40 36 34 38 40 35 29 25 33 37 40 41 39 36 33 31 29 28 28 26 23 20 18 18 20 22 22 22 22 23 21 22 23 24 24 25 26
41 46 42 40 42 40 39 38 35 37 40 39 33 28 27 32 34 39 39 36 36 31 29 30 29 26 23 20 18 19 20 21 21 20 21 21 20 20 22 23 23 25 25
35 40 47 47 45 40 37 38 40 41 42 40 36 32 29 32 33 39 42 39 37 31 32 29 29 25 23 20 17 18 18 23 22 22 21 20 19 19 18 20 23 23 23
23 31 41 46 50 50 43 39 40 43 45 47 34 34 32 32 33 37 41 40 37 33 34 28 27 25 24 20 15 17 21 25 23 22 21 19 18 17 16 18 20 20 21
41 42 41 43 49 49 45 43 43 43 45 51 40 37 39 38 33 33 38 40 35 32 33 27 26 25 24 18 14 21 25 27 24 21 20 18 17 16 17 16 16 17 20
40 38 38 49 48 44 38 38 36 39 49 52 50 33 31 35 29 33 38 39 35 33 35 28 25 25 22 13 17 23 24 27 22 20 18 17 16 16 17 15 15 15 16
34 30 34 35 46 38 40 38 37 40 41 49 53 29 27 36 28 27 39 38 37 35 32 26 24 23 19 19 23 25 30 22 20 18 17 15 16 16 15 14 15 16 17
38 40 35 38 40 38 36 36 37 37 41 46 52 36 23 34 39 37 36 39 40 38 30 26 26 27 24 26 23 25 22 19 18 16 15 15 15 15 14 14 15 16 18
21 23 23 29 34 39 38 33 36 41 36 46 56 46 31 31 29 40 33 37 43 31 28 29 27 25 31 30 25 21 19 17 17 16 15 15 15 14 13 13 14 16 18
6 7 11 11 19 22 16 19 24 28 28 44 53 29 26 24 25 29 33 37 36 31 31 31 28 27 25 27 20 20 18 17 16 16 16 15 14 14 13 13 13 15 17
15 7 8 7 6 10 12 14 13 14 21 42 34 15 34 27 29 30 35 35 31 32 35 35 30 17 21 17 19 19 17 17 16 16 15 15 15 14 13 12 13 15 16
17 18 13 9 13 15 18 18 17 17 16 23 19 30 30 24 26 28 35 33 34 37 37 26 26 14 16 16 18 17 17 17 17 16 15 16 15 14 12 12 12 14 15
25 24 18 15 12 11 11 15 18 17 16 16 18 19 22 23 23 27 36 37 40 43 36 18 19 17 17 17 17 17 17 17 16 16 17 16 15 13 11 11 12 13 15
26 21 23 21 13 11 11 12 13 17 18 19 20 21 24 24 23 28 36 42 46 40 36 27 17 22 18 18 18 17 17 17 16 17 17 16 15 12 11 10 11 14 16
24 22 24 22 16 8 7 9 11 17 20 20 17 21 24 26 29 33 39 46 41 37 36 32 28 25 20 17 17 17 18 17 17 17 17 17 14 12 11 11 13 15 15
27 26 25 24 20 17 14 11 14 19 19 18 20 19 24 32 36 36 41 46 38 34 34 25 26 23 18 16 16 16 17 17 17 17 17 16 13 12 12 13 14 15 16
24 25 18 18 15 14 15 13 14 16 20 25 24 26 35 29 31 37 44 46 41 42 36 31 28 23 17 17 17 17 17 18 18 18 17 14 14 14 14 14 16 18 17
18 19 16 13 14 18 18 17 16 16 17 20 21 25 28 32 28 32 41 45 46 29 30 29 26 21 18 17 17 17 17 19 21 18 16 15 15 15 15 15 17 17 18
10 18 16 13 10 12 14 15 15 13 10 11 10 18 28 30 33 24 39 39 35 36 33 30 26 21 18 17 17 18 20 21 21 18 18 17 16 16 16 17 17 17 18
10 13 11 12 11 13 12 12 13 12 12 15 14 20 24 29 32 26 40 40 39 30 28 26 21 21 18 17 19 21 21 21 20 19 19 18 17 18 18 18 18 19 20
9 7 10 11 10 9 14 17 18 15 17 19 19 20 25 27 35 28 41 37 31 25 21 22 21 19 18 18 20 22 21 20 20 20 21 20 20 20 20 19 19 21 23
8 8 9 10 14 14 11 14 17 19 21 24 24 23 25 31 32 26 39 45 35 32 28 21 20 18 18 19 21 20 21 20 22 22 22 22 22 22 21 20 21 23 24
16 15 12 11 14 18 18 18 18 18 19 23 25 22 26 29 28 27 30 39 31 27 16 20 20 20 21 22 22 22 23 22 23 22 22 23 23 23 22 22 23 25 26
17 17 14 17 18 18 20 20 21 20 21 22 23 19 26 30 30 28 30 32 25 23 20 21 16 21 22 20 19 21 22 22 22 22 23 24 24 23 22 23 25 26 27